Volver al catálogo

DMSP 5D-2 F13 DEB

ActivoSSO
NORAD 40441·DEBRIS·🇺🇸 United States

Lanzado Mar 24, 1995 desde Vandenberg Space Force Base

Loading…

Próximos Pases (próximas 24 horas)

TLE

ActualizadoSource: Space-Track

Época: Sep 14, 2026, 19:45 UTC

1 40441U 95015AT  26257.82346543  .00001067  00000-0  47587-3 0  9998
2 40441  98.8107 283.1280 0020137 342.2958  17.7517 14.24803894596391

Sigue DMSP 5D-2 F13 DEB en tiempo real con AllMySat

Download on the App Store